UAL1312 KLAS-KSFO

Flight info

Callsign UAL1312
Flight time 1h 8m
Altitude 38000
Route JOHKR5 KENNO RUSME DYAMD5
Aircraft B739/M-SDE2E3FGHIRWXY/LB1

Departure

Time 2026-05-07 22:59
Airport Harry Reid International Airport (KLAS)

Arrival

Time 2026-05-08 00:08
Airport San Francisco International Airport (KSFO)
Time Latitude Longitude Altitude Speed Heading
2026-05-07 22:25 36.08316 -115.14005 2092 ft 0 kts 133°
2026-05-07 22:32 36.08340 -115.13977 2092 ft 0 kts 133°
2026-05-07 22:32 36.08338 -115.13969 2092 ft 0 kts 158°
2026-05-07 22:32 36.08345 -115.13972 2091 ft 0 kts 158°
2026-05-07 22:46 36.08358 -115.13979 2091 ft 4 kts 168°
2026-05-07 22:46 36.08384 -115.13980 2091 ft 4 kts 188°
2026-05-07 22:47 36.08406 -115.13975 2091 ft 4 kts 219°
2026-05-07 22:47 36.08416 -115.13951 2091 ft 4 kts 266°
2026-05-07 22:47 36.08416 -115.13919 2091 ft 2 kts 270°
2026-05-07 22:47 36.08416 -115.13917 2091 ft 0 kts 270°
2026-05-07 22:51 36.08416 -115.13922 2091 ft 3 kts 270°
2026-05-07 22:51 36.08412 -115.13997 2091 ft 12 kts 255°
2026-05-07 22:51 36.08360 -115.14071 2091 ft 11 kts 224°
2026-05-07 22:52 36.08302 -115.14141 2093 ft 12 kts 224°
2026-05-07 22:52 36.08242 -115.14210 2094 ft 12 kts 227°
2026-05-07 22:52 36.08172 -115.14242 2094 ft 11 kts 180°
2026-05-07 22:52 36.08092 -115.14242 2094 ft 14 kts 179°
2026-05-07 22:53 36.07979 -115.14241 2094 ft 16 kts 180°
2026-05-07 22:53 36.07891 -115.14241 2094 ft 7 kts 179°
2026-05-07 22:53 36.07841 -115.14233 2094 ft 9 kts 150°
2026-05-07 22:53 36.07829 -115.14118 2093 ft 18 kts 86°
2026-05-07 22:54 36.07828 -115.13965 2092 ft 18 kts 91°
2026-05-07 22:54 36.07827 -115.13817 2092 ft 17 kts 91°
2026-05-07 22:54 36.07828 -115.13678 2091 ft 16 kts 90°
2026-05-07 22:54 36.07829 -115.13541 2090 ft 16 kts 87°
2026-05-07 22:55 36.07829 -115.13415 2089 ft 16 kts 90°
2026-05-07 22:55 36.07829 -115.13249 2086 ft 23 kts 90°
2026-05-07 22:55 36.07828 -115.13080 2080 ft 15 kts 90°
2026-05-07 22:55 36.07772 -115.13015 2075 ft 13 kts 157°
2026-05-07 22:56 36.07755 -115.12889 2072 ft 20 kts 90°
2026-05-07 22:56 36.07756 -115.12692 2064 ft 24 kts 89°
2026-05-07 22:56 36.07756 -115.12484 2057 ft 25 kts 90°
2026-05-07 22:56 36.07756 -115.12309 2052 ft 14 kts 90°
2026-05-07 22:57 36.07756 -115.12269 2051 ft 0 kts 89°
2026-05-07 22:57 36.07754 -115.12252 2051 ft 7 kts 107°
2026-05-07 22:58 36.07687 -115.12235 2049 ft 12 kts 182°
2026-05-07 22:58 36.07643 -115.12285 2050 ft 6 kts 270°
2026-05-07 22:58 36.07643 -115.12319 2051 ft 5 kts 269°
2026-05-07 22:58 36.07642 -115.12475 2056 ft 49 kts 270°
2026-05-07 22:59 36.07642 -115.13217 2085 ft 122 kts 270°
2026-05-07 22:59 36.07638 -115.14518 2104 ft 182 kts 271°
2026-05-07 22:59 36.07635 -115.16167 2732 ft 194 kts 271°
2026-05-07 22:59 36.07635 -115.17883 3540 ft 202 kts 270°
2026-05-07 23:00 36.07636 -115.19685 4092 ft 220 kts 269°
2026-05-07 23:00 36.07548 -115.21657 4284 ft 243 kts 262°
2026-05-07 23:00 36.07225 -115.23773 4776 ft 252 kts 252°
2026-05-07 23:00 36.06328 -115.25608 5460 ft 255 kts 226°
2026-05-07 23:01 36.04838 -115.26912 5940 ft 272 kts 202°
2026-05-07 23:01 36.03029 -115.27725 6628 ft 279 kts 200°
2026-05-07 23:01 36.01242 -115.28514 7352 ft 283 kts 201°
2026-05-07 23:01 35.99368 -115.29354 7770 ft 286 kts 202°
2026-05-07 23:02 35.97557 -115.30398 8397 ft 288 kts 210°
2026-05-07 23:02 35.95827 -115.31563 9226 ft 290 kts 211°
2026-05-07 23:02 35.94056 -115.32754 10040 ft 293 kts 211°
2026-05-07 23:02 35.92219 -115.33976 10483 ft 310 kts 210°
2026-05-07 23:03 35.90282 -115.35435 10660 ft 333 kts 223°
2026-05-07 23:03 35.88915 -115.37765 11037 ft 339 kts 248°
2026-05-07 23:03 35.88459 -115.40615 11026 ft 339 kts 272°
2026-05-07 23:03 35.88534 -115.43507 10989 ft 341 kts 273°
2026-05-07 23:04 35.88637 -115.46410 10992 ft 337 kts 273°
2026-05-07 23:04 35.88724 -115.49308 10992 ft 339 kts 272°
2026-05-07 23:04 35.88793 -115.52215 11005 ft 339 kts 272°
2026-05-07 23:04 35.88851 -115.55057 10992 ft 343 kts 272°
2026-05-07 23:05 35.88907 -115.57995 11127 ft 346 kts 272°
2026-05-07 23:05 35.88963 -115.60978 11833 ft 348 kts 273°
2026-05-07 23:05 35.89019 -115.63993 12472 ft 354 kts 273°
2026-05-07 23:05 35.89076 -115.67042 13210 ft 356 kts 274°
2026-05-07 23:06 35.89132 -115.70085 13832 ft 362 kts 273°
2026-05-07 23:06 35.89189 -115.73241 14411 ft 366 kts 273°
2026-05-07 23:06 35.89246 -115.76395 15069 ft 369 kts 273°
2026-05-07 23:06 35.89301 -115.79561 15705 ft 371 kts 274°
2026-05-07 23:07 35.89357 -115.82774 16334 ft 375 kts 274°
2026-05-07 23:07 35.89412 -115.85982 16965 ft 379 kts 274°
2026-05-07 23:07 35.89467 -115.89256 17578 ft 382 kts 273°
2026-05-07 23:07 35.89735 -115.92506 18157 ft 383 kts 289°
2026-05-07 23:08 35.90845 -115.95392 18687 ft 380 kts 308°
2026-05-07 23:08 35.92594 -115.97825 19252 ft 379 kts 317°
2026-05-07 23:08 35.94472 -116.00125 19801 ft 383 kts 317°
2026-05-07 23:08 35.96396 -116.02434 20334 ft 386 kts 318°
2026-05-07 23:09 35.98320 -116.04750 20906 ft 388 kts 317°
2026-05-07 23:09 36.00252 -116.07095 21480 ft 391 kts 317°
2026-05-07 23:09 36.02196 -116.09466 21950 ft 396 kts 317°
2026-05-07 23:09 36.04146 -116.11895 22465 ft 400 kts 316°
2026-05-07 23:10 36.06032 -116.14279 23000 ft 401 kts 317°
2026-05-07 23:10 36.07997 -116.16698 23544 ft 403 kts 318°
2026-05-07 23:10 36.10000 -116.19154 23952 ft 406 kts 318°
2026-05-07 23:10 36.12010 -116.21624 24381 ft 408 kts 317°
2026-05-07 23:11 36.14025 -116.24113 24796 ft 411 kts 317°
2026-05-07 23:11 36.16048 -116.26629 25174 ft 415 kts 317°
2026-05-07 23:11 36.18097 -116.29174 25592 ft 418 kts 317°
2026-05-07 23:11 36.20150 -116.31726 26021 ft 420 kts 317°
2026-05-07 23:12 36.22221 -116.34304 26430 ft 422 kts 317°
2026-05-07 23:12 36.24300 -116.36896 26830 ft 425 kts 317°
2026-05-07 23:12 36.26393 -116.39507 27215 ft 428 kts 317°
2026-05-07 23:12 36.28470 -116.42097 27610 ft 430 kts 317°
2026-05-07 23:13 36.30613 -116.44695 27999 ft 432 kts 318°
2026-05-07 23:13 36.32794 -116.47274 28405 ft 434 kts 319°
2026-05-07 23:13 36.34980 -116.49843 28751 ft 436 kts 319°
2026-05-07 23:13 36.37197 -116.52451 29111 ft 440 kts 319°
2026-05-07 23:14 36.39416 -116.55090 29406 ft 443 kts 318°
2026-05-07 23:14 36.41636 -116.57743 29763 ft 445 kts 318°
2026-05-07 23:14 36.43873 -116.60418 30082 ft 448 kts 318°
2026-05-07 23:14 36.46144 -116.63090 30376 ft 450 kts 319°
2026-05-07 23:15 36.48453 -116.65711 30785 ft 448 kts 320°
2026-05-07 23:15 36.50762 -116.68304 31281 ft 445 kts 320°
2026-05-07 23:15 36.53054 -116.70887 31746 ft 443 kts 320°
2026-05-07 23:15 36.55319 -116.73457 32140 ft 443 kts 319°
2026-05-07 23:16 36.57563 -116.76014 32504 ft 442 kts 319°
2026-05-07 23:16 36.59836 -116.78608 32909 ft 441 kts 319°
2026-05-07 23:16 36.62094 -116.81186 33336 ft 440 kts 319°
2026-05-07 23:16 36.64350 -116.83763 33722 ft 438 kts 319°
2026-05-07 23:17 36.66587 -116.86321 34074 ft 437 kts 319°
2026-05-07 23:17 36.68824 -116.88894 34340 ft 437 kts 319°
2026-05-07 23:17 36.71061 -116.91461 34575 ft 438 kts 319°
2026-05-07 23:17 36.73317 -116.94017 34869 ft 437 kts 322°
2026-05-07 23:18 36.75862 -116.96044 35149 ft 433 kts 334°
2026-05-07 23:18 36.78562 -116.97724 35456 ft 432 kts 335°
2026-05-07 23:18 36.81255 -116.99405 35685 ft 432 kts 334°
2026-05-07 23:18 36.83905 -117.01076 35933 ft 432 kts 334°
2026-05-07 23:19 36.86572 -117.02784 36231 ft 430 kts 334°
2026-05-07 23:19 36.89226 -117.04500 36516 ft 430 kts 333°
2026-05-07 23:19 36.91885 -117.06225 36748 ft 430 kts 333°
2026-05-07 23:19 36.94544 -117.07955 36993 ft 430 kts 333°
2026-05-07 23:20 36.97195 -117.09680 37269 ft 429 kts 333°
2026-05-07 23:20 36.99835 -117.11399 37506 ft 428 kts 333°
2026-05-07 23:20 37.02483 -117.13125 37706 ft 429 kts 333°
2026-05-07 23:20 37.05125 -117.14846 37903 ft 428 kts 333°
2026-05-07 23:21 37.07788 -117.16583 37913 ft 431 kts 333°
2026-05-07 23:21 37.13080 -117.20040 37930 ft 431 kts 333°
2026-05-07 23:22 37.18388 -117.23514 37933 ft 430 kts 333°
2026-05-07 23:22 37.23695 -117.26991 37942 ft 430 kts 333°
2026-05-07 23:23 37.29001 -117.30474 37945 ft 430 kts 332°
2026-05-07 23:23 37.31504 -117.32516 37931 ft 430 kts 321°
2026-05-07 23:23 37.33772 -117.34964 37956 ft 430 kts 319°
2026-05-07 23:24 37.38180 -117.39902 37938 ft 431 kts 319°
2026-05-07 23:24 37.41982 -117.44041 37944 ft 431 kts 320°
2026-05-07 23:25 37.46514 -117.48902 37927 ft 431 kts 319°
2026-05-07 23:25 37.48451 -117.51747 37917 ft 431 kts 299°
2026-05-07 23:25 37.49636 -117.55212 37921 ft 433 kts 284°
2026-05-07 23:26 37.50413 -117.62730 37916 ft 434 kts 276°
2026-05-07 23:26 37.50969 -117.70322 37931 ft 436 kts 276°
2026-05-07 23:27 37.51848 -117.81771 37924 ft 439 kts 277°
2026-05-07 23:27 37.52461 -117.89432 37928 ft 440 kts 277°
2026-05-07 23:28 37.53073 -117.97079 37931 ft 441 kts 277°
2026-05-07 23:28 37.53683 -118.04758 37933 ft 441 kts 277°
2026-05-07 23:29 37.54288 -118.12449 37928 ft 440 kts 277°
2026-05-07 23:29 37.54886 -118.20110 37979 ft 438 kts 276°
2026-05-07 23:30 37.55477 -118.27750 37988 ft 437 kts 277°
2026-05-07 23:30 37.56061 -118.35374 38004 ft 435 kts 276°
2026-05-07 23:31 37.56638 -118.42965 37991 ft 434 kts 277°
2026-05-07 23:31 37.57204 -118.50469 37979 ft 432 kts 276°
2026-05-07 23:32 37.57486 -118.54244 38097 ft 431 kts 276°
2026-05-07 23:32 37.57767 -118.58008 38124 ft 431 kts 276°
2026-05-07 23:32 37.58325 -118.65532 38197 ft 431 kts 276°
2026-05-07 23:33 37.58878 -118.73063 38250 ft 431 kts 276°
2026-05-07 23:33 37.59427 -118.80605 38260 ft 431 kts 276°
2026-05-07 23:34 37.59967 -118.88096 38253 ft 432 kts 275°
2026-05-07 23:34 37.60507 -118.95658 38248 ft 433 kts 275°
2026-05-07 23:35 37.61042 -119.03202 38213 ft 434 kts 275°
2026-05-07 23:35 37.61305 -119.06986 38092 ft 434 kts 275°
2026-05-07 23:35 37.61561 -119.10775 38075 ft 434 kts 275°
2026-05-07 23:36 37.62083 -119.18357 38105 ft 433 kts 275°
2026-05-07 23:36 37.62612 -119.25776 38103 ft 433 kts 275°
2026-05-07 23:37 37.63133 -119.33339 38105 ft 432 kts 275°
2026-05-07 23:37 37.63638 -119.40836 38116 ft 431 kts 275°
2026-05-07 23:38 37.64142 -119.48383 38108 ft 431 kts 275°
2026-05-07 23:38 37.64641 -119.55922 37856 ft 434 kts 275°
2026-05-07 23:39 37.64891 -119.59716 37481 ft 432 kts 275°
2026-05-07 23:39 37.65138 -119.63489 36996 ft 428 kts 275°
2026-05-07 23:39 37.65380 -119.67205 36575 ft 423 kts 275°
2026-05-07 23:39 37.65619 -119.70881 36117 ft 419 kts 275°
2026-05-07 23:40 37.65854 -119.74524 35635 ft 415 kts 275°
2026-05-07 23:40 37.66087 -119.78150 35174 ft 412 kts 275°
2026-05-07 23:40 37.66317 -119.81754 34716 ft 410 kts 276°
2026-05-07 23:40 37.66545 -119.85323 34237 ft 407 kts 276°
2026-05-07 23:41 37.66770 -119.88889 33749 ft 405 kts 276°
2026-05-07 23:41 37.66990 -119.92366 33270 ft 403 kts 275°
2026-05-07 23:41 37.67210 -119.95878 32787 ft 400 kts 276°
2026-05-07 23:41 37.67428 -119.99366 32337 ft 397 kts 276°
2026-05-07 23:42 37.67642 -120.02816 31911 ft 394 kts 276°
2026-05-07 23:42 37.67854 -120.06252 31447 ft 391 kts 276°
2026-05-07 23:42 37.68065 -120.09658 31019 ft 389 kts 276°
2026-05-07 23:42 37.68272 -120.13051 30603 ft 387 kts 276°
2026-05-07 23:43 37.68476 -120.16393 30190 ft 385 kts 275°
2026-05-07 23:43 37.68680 -120.19758 29700 ft 383 kts 275°
2026-05-07 23:43 37.68883 -120.23098 29234 ft 380 kts 276°
2026-05-07 23:43 37.69082 -120.26417 28788 ft 377 kts 276°
2026-05-07 23:44 37.69278 -120.29699 28367 ft 374 kts 276°
2026-05-07 23:44 37.69474 -120.32964 27938 ft 371 kts 276°
2026-05-07 23:44 37.69666 -120.36197 27530 ft 368 kts 276°
2026-05-07 23:44 37.69856 -120.39416 27120 ft 366 kts 275°
2026-05-07 23:45 37.69817 -120.42621 26666 ft 366 kts 264°
2026-05-07 23:45 37.69448 -120.45792 26240 ft 364 kts 261°
2026-05-07 23:45 37.69027 -120.48957 25788 ft 364 kts 261°
2026-05-07 23:45 37.68612 -120.52107 25342 ft 364 kts 261°
2026-05-07 23:46 37.68214 -120.55259 24891 ft 363 kts 262°
2026-05-07 23:46 37.67833 -120.58378 24435 ft 364 kts 262°
2026-05-07 23:46 37.67456 -120.61539 23987 ft 364 kts 262°
2026-05-07 23:46 37.67083 -120.64695 23506 ft 364 kts 262°
2026-05-07 23:47 37.66711 -120.67858 22992 ft 364 kts 262°
2026-05-07 23:47 37.66339 -120.71015 22524 ft 362 kts 262°
2026-05-07 23:47 37.65967 -120.74153 22061 ft 361 kts 262°
2026-05-07 23:47 37.65595 -120.77270 21650 ft 358 kts 262°
2026-05-07 23:48 37.65224 -120.80361 21251 ft 355 kts 262°
2026-05-07 23:48 37.64854 -120.83434 20857 ft 352 kts 262°
2026-05-07 23:48 37.64489 -120.86457 20466 ft 350 kts 262°
2026-05-07 23:48 37.64124 -120.89489 20080 ft 347 kts 262°
2026-05-07 23:49 37.63760 -120.92491 19700 ft 345 kts 263°
2026-05-07 23:49 37.63399 -120.95472 19320 ft 343 kts 262°
2026-05-07 23:49 37.63027 -120.98405 18935 ft 342 kts 261°
2026-05-07 23:49 37.62635 -121.01352 18551 ft 340 kts 261°
2026-05-07 23:50 37.62238 -121.04291 18148 ft 339 kts 262°
2026-05-07 23:50 37.61844 -121.07216 17728 ft 337 kts 262°
2026-05-07 23:50 37.61453 -121.10116 17332 ft 334 kts 261°
2026-05-07 23:50 37.61065 -121.13003 16946 ft 332 kts 261°
2026-05-07 23:51 37.60680 -121.15874 16477 ft 332 kts 261°
2026-05-07 23:51 37.60297 -121.18728 16104 ft 330 kts 261°
2026-05-07 23:51 37.59913 -121.21577 15726 ft 327 kts 261°
2026-05-07 23:51 37.59532 -121.24402 15353 ft 325 kts 261°
2026-05-07 23:52 37.59158 -121.27201 14981 ft 323 kts 261°
2026-05-07 23:52 37.58822 -121.30009 14631 ft 321 kts 262°
2026-05-07 23:52 37.58508 -121.32785 14276 ft 319 kts 262°
2026-05-07 23:52 37.58198 -121.35540 13913 ft 317 kts 262°
2026-05-07 23:53 37.57886 -121.38289 13523 ft 315 kts 262°
2026-05-07 23:53 37.57581 -121.40968 13155 ft 313 kts 262°
2026-05-07 23:53 37.57267 -121.43696 12787 ft 311 kts 262°
2026-05-07 23:53 37.56960 -121.46357 12433 ft 307 kts 262°
2026-05-07 23:54 37.56652 -121.49012 12091 ft 304 kts 262°
2026-05-07 23:54 37.56346 -121.51642 11748 ft 302 kts 262°
2026-05-07 23:54 37.56043 -121.54251 11394 ft 300 kts 261°
2026-05-07 23:54 37.55740 -121.56845 11086 ft 298 kts 261°
2026-05-07 23:55 37.55447 -121.59351 10763 ft 296 kts 261°
2026-05-07 23:55 37.55148 -121.61887 10430 ft 294 kts 261°
2026-05-07 23:55 37.54729 -121.64390 10139 ft 293 kts 254°
2026-05-07 23:55 37.54129 -121.66839 9874 ft 289 kts 252°
2026-05-07 23:56 37.53525 -121.69185 9873 ft 275 kts 252°
2026-05-07 23:56 37.52952 -121.71468 9559 ft 273 kts 252°
2026-05-07 23:56 37.52398 -121.73738 9313 ft 269 kts 253°
2026-05-07 23:56 37.51850 -121.76007 8927 ft 270 kts 253°
2026-05-07 23:57 37.51320 -121.78217 8719 ft 265 kts 253°
2026-05-07 23:57 37.50792 -121.80419 8632 ft 256 kts 252°
2026-05-07 23:57 37.50282 -121.82544 8392 ft 253 kts 252°
2026-05-07 23:57 37.49772 -121.84657 8110 ft 252 kts 253°
2026-05-07 23:58 37.49265 -121.86765 7858 ft 249 kts 254°
2026-05-07 23:58 37.49081 -121.88923 7569 ft 250 kts 274°
2026-05-07 23:58 37.49250 -121.91095 7363 ft 247 kts 274°
2026-05-07 23:58 37.49394 -121.93240 7077 ft 247 kts 273°
2026-05-07 23:59 37.49527 -121.95407 6812 ft 246 kts 273°
2026-05-07 23:59 37.49656 -121.97543 6576 ft 243 kts 273°
2026-05-07 23:59 37.49778 -121.99636 6282 ft 243 kts 272°
2026-05-07 23:59 37.49903 -122.01788 5962 ft 242 kts 273°
2026-05-08 00:00 37.50017 -122.03790 5882 ft 223 kts 273°
2026-05-08 00:00 37.50124 -122.05661 5726 ft 207 kts 272°
2026-05-08 00:00 37.50223 -122.07402 5481 ft 194 kts 272°
2026-05-08 00:00 37.50329 -122.09047 5193 ft 185 kts 278°
2026-05-08 00:01 37.50825 -122.10526 4839 ft 182 kts 297°
2026-05-08 00:01 37.51424 -122.11938 4399 ft 183 kts 296°
2026-05-08 00:01 37.52015 -122.13365 3939 ft 183 kts 296°
2026-05-08 00:01 37.52606 -122.14723 3656 ft 175 kts 297°
2026-05-08 00:02 37.53183 -122.16080 3463 ft 177 kts 297°
2026-05-08 00:02 37.53768 -122.17475 3218 ft 175 kts 297°
2026-05-08 00:02 37.54321 -122.18799 2965 ft 172 kts 297°
2026-05-08 00:02 37.54868 -122.20116 2772 ft 170 kts 297°
2026-05-08 00:03 37.55387 -122.21369 2547 ft 172 kts 297°
2026-05-08 00:03 37.55927 -122.22665 2341 ft 166 kts 297°
2026-05-08 00:03 37.56438 -122.23891 2127 ft 156 kts 297°
2026-05-08 00:03 37.56945 -122.25111 1912 ft 155 kts 296°
2026-05-08 00:04 37.57427 -122.26270 1744 ft 143 kts 296°
2026-05-08 00:04 37.57871 -122.27335 1515 ft 133 kts 297°
2026-05-08 00:04 37.58305 -122.28379 1342 ft 135 kts 297°
2026-05-08 00:04 37.58734 -122.29411 1172 ft 129 kts 297°
2026-05-08 00:05 37.59157 -122.30426 988 ft 132 kts 296°
2026-05-08 00:05 37.59579 -122.31440 798 ft 130 kts 296°
2026-05-08 00:05 37.59988 -122.32422 654 ft 123 kts 296°
2026-05-08 00:05 37.60379 -122.33357 475 ft 117 kts 296°
2026-05-08 00:06 37.60687 -122.34096 333 ft 117 kts 296°
2026-05-08 00:07 37.60876 -122.34548 292 ft 120 kts 296°
2026-05-08 00:07 37.61245 -122.35465 124 ft 117 kts 294°
2026-05-08 00:07 37.61608 -122.36330 16 ft 101 kts 298°
2026-05-08 00:08 37.61879 -122.36968 17 ft 67 kts 297°
2026-05-08 00:08 37.62063 -122.37405 15 ft 49 kts 297°
2026-05-08 00:08 37.62191 -122.37743 19 ft 36 kts 281°
2026-05-08 00:08 37.62219 -122.38013 24 ft 26 kts 277°
2026-05-08 00:09 37.62227 -122.38186 22 ft 19 kts 264°
2026-05-08 00:09 37.62176 -122.38301 22 ft 15 kts 198°
2026-05-08 00:09 37.62089 -122.38334 23 ft 8 kts 196°
2026-05-08 00:09 37.62044 -122.38347 22 ft 6 kts 176°
2026-05-08 00:10 37.62002 -122.38283 23 ft 14 kts 121°
2026-05-08 00:10 37.61968 -122.38249 22 ft 8 kts 184°
2026-05-08 00:10 37.61913 -122.38284 20 ft 9 kts 208°
2026-05-08 00:10 37.61883 -122.38304 19 ft 0 kts 207°
2026-05-08 00:11 37.61881 -122.38305 19 ft 1 kts 207°
2026-05-08 00:11 37.61871 -122.38339 17 ft 7 kts 293°
2026-05-08 00:11 37.61881 -122.38367 17 ft 2 kts 298°
2026-05-08 00:12 37.61883 -122.38373 18 ft 0 kts 298°